Content
SEND FEEDBACK

Daily
Averages
Monthly
Summary
United States of America

NEW HAMPTON, IOWA


Home > North America > United States > Iowa
Elevation: 1108 feet     Latitude: 43 02N     Longitude: 092 19W

WEATHER
 
SELECT A DAY
Number of Records: 419,297;   Date Range: 4/23/95 - 10/1/14
 
SHARE

PRINT THIS DATA

[ ← Previous Day ]
WEATHER ALMANAC - JANUARY 31, 2013
[ Next Day → ]
[ °C ]   °F
Weather ElementAverageHighLow
Temperature0.8 °F8.6 °F (12:35 am)-5.8 °F (10:35 pm)
Dewpoint-7.9 °F1.4 °F (12:35 am)-14.8 °F (10:15 pm)
Humidity66.9 %78 % (4:55 am)60 % (4:55 pm)
Barometer30.00 in30.26 in (11:35 pm)29.76 in (12:35 am)
Wind Speed20 mph26.5 mph (11:35 am)
Wind Gust34.5 mph (11:35 am)
Weather ElementAverage
Visibility7.9 mi
Wind DirectionWNW (302.5 °)

Weather ElementTotal
Precipitation---
Heating Degree Days63.6 (Base 65)
Averaged from 69 records on January 31, 2013
WEATHER CONDITIONS BREAKOUT
WIND DIRECTION BREAKOUT
WEATHER BY HOUR - JANUARY 31, 2013
[ °C ]   °F
Local TimeTemperatureDewpointHumidityBarometerVisibilityWind DirectionWind SpeedGust SpeedPrecipitationEventsConditions
12:35 AM8.6 °F1.4 °F73 %29.76 in9.0 miWNW (300°)15.0 mph23.0 mphOvercast
12:55 AM8.6 °F1.4 °F73 %29.77 in9.0 miWNW (290°)15.0 mph24.2 mphLight Drizzle
1:15 AM8.6 °F1.4 °F73 %29.77 in4.0 miWNW (300°)17.3 mph26.5 mphSnowLight Snow
1:35 AM6.8 °F-0.4 °F72 %29.78 in5.0 miNW (310°)16.1 mph27.6 mphLight Drizzle
1:55 AM6.8 °F-0.4 °F72 %29.79 in4.0 miWNW (300°)16.1 mph24.2 mphRainLight Rain
2:15 AM5.0 °F-2.2 °F72 %29.79 in8.0 miWNW (300°)17.3 mph26.5 mphRainLight Rain
2:35 AM5.0 °F-2.2 °F72 %29.80 in7.0 miWNW (300°)13.8 mph20.7 mphLight Drizzle
2:55 AM5.0 °F-2.2 °F72 %29.80 in10.0 miWNW (300°)15.0 mph21.9 mphOvercast
3:15 AM5.0 °F-2.2 °F72 %29.79 in10.0 miWNW (300°)15.0 mph20.7 mphOvercast
3:35 AM5.0 °F-2.2 °F72 %29.79 in10.0 miWNW (300°)12.7 mph19.6 mphOvercast
3:55 AM3.2 °F-4.0 °F72 %29.80 in8.0 miWNW (300°)20.7 mphOvercast
4:15 AM5.0 °F-4.0 °F66 %29.81 in10.0 miWNW (300°)18.4 mph25.3 mphOvercast
4:35 AM3.2 °F-4.0 °F72 %29.81 in9.0 miWNW (290°)17.3 mph25.3 mphOvercast
4:55 AM3.2 °F-2.2 °F78 %29.82 in7.0 miWNW (290°)16.1 mphSnowLight Snow
5:15 AM3.2 °F-4.0 °F72 %29.82 in7.0 miWNW (300°)20.7 mph27.6 mphLight Drizzle
5:35 AM3.2 °F-4.0 °F72 %29.83 in9.0 miWNW (300°)19.6 mph26.5 mphRainLight Rain
5:55 AM3.2 °F-4.0 °F72 %29.84 in6.0 miNW (310°)20.7 mphRainLight Rain
6:15 AM3.2 °F-4.0 °F72 %29.85 in5.0 miWNW (300°)17.3 mph24.2 mphRainLight Rain
6:35 AM1.4 °F-5.8 °F72 %29.86 in8.0 miWNW (300°)19.6 mph25.3 mphOvercast
6:55 AM1.4 °F-5.8 °F72 %29.87 in6.0 miWNW (300°)24.2 mphSnowLight Snow
7:15 AM1.4 °F-7.6 °F66 %29.87 inWNW (300°)20.7 mphLight Drizzle
7:35 AM-0.4 °F-7.6 °F72 %29.88 in9.0 miWNW (300°)20.7 mph26.5 mphMostly Cloudy
7:55 AM-0.4 °F-7.6 °F72 %29.89 in7.0 miWNW (300°)18.4 mphMostly Cloudy
8:15 AM-0.4 °F-7.6 °F72 %29.90 in7.0 miWNW (300°)17.3 mph24.2 mphOvercast
8:35 AM-0.4 °F-9.4 °F66 %29.91 in9.0 miNW (310°)18.4 mph24.2 mphMostly Cloudy
8:55 AM-0.4 °F-9.4 °F66 %29.93 in6.0 miWNW (300°)18.4 mph26.5 mphHaze
9:15 AM-0.4 °F-9.4 °F66 %29.93 in8.0 miWNW (300°)19.6 mphMostly Cloudy
9:35 AM1.4 °F-9.4 °F61 %29.94 in5.0 miWNW (300°)23.0 mph31.1 mphHaze
9:55 AM1.4 °F-9.4 °F61 %29.95 in6.0 miNW (310°)21.9 mph29.9 mphHaze
10:15 AM1.4 °F-7.6 °F66 %29.96 in8.0 miNW (320°)23.0 mphMostly Cloudy
10:35 AM1.4 °F-9.4 °F61 %29.98 in8.0 miNW (310°)20.7 mph28.8 mphMostly Cloudy
10:55 AM1.4 °F-7.6 °F66 %29.98 in7.0 miWNW (300°)21.9 mphMostly Cloudy
11:15 AM1.4 °F-7.6 °F66 %29.99 in9.0 miWNW (300°)21.9 mph28.8 mphOvercast
11:35 AM1.4 °F-7.6 °F66 %30.00 in9.0 miWNW (300°)26.5 mph34.5 mphOvercast
11:55 AM1.4 °F-7.6 °F66 %30.00 in8.0 miWNW (300°)20.7 mph29.9 mphOvercast
12:15 PM1.4 °F-7.6 °F66 %30.01 in4.0 miWNW (300°)23.0 mph29.9 mphHaze
12:35 PM1.4 °F-7.6 °F66 %30.01 in6.0 miWNW (300°)25.3 mph32.2 mphHaze
12:55 PM1.4 °F-7.6 °F66 %30.01 in6.0 miWNW (300°)21.9 mph33.4 mphHaze
1:15 PM1.4 °F-7.6 °F66 %30.02 in3.0 miWNW (300°)23.0 mph33.4 mphSnowLight Snow
1:35 PM1.4 °F-7.6 °F66 %30.03 in7.0 miWNW (300°)24.2 mphMostly Cloudy
1:55 PM1.4 °F-9.4 °F61 %30.04 in9.0 miWNW (300°)23.0 mph31.1 mphMostly Cloudy
2:15 PM1.4 °F-9.4 °F61 %30.05 in5.0 miWNW (300°)24.2 mph34.5 mphLight Drizzle
2:35 PM1.4 °F-9.4 °F61 %30.05 in6.0 miWNW (300°)24.2 mph33.4 mphHaze
2:55 PM1.4 °F-7.6 °F66 %30.06 in8.0 miWNW (300°)21.9 mph31.1 mphOvercast
3:15 PM1.4 °F-9.4 °F61 %30.07 in8.0 miWNW (300°)23.0 mph34.5 mphOvercast
3:35 PM1.4 °F-9.4 °F61 %30.08 in4.0 miNW (310°)24.2 mph33.4 mphRainLight Rain
3:55 PM-0.4 °F-9.4 °F66 %30.09 in8.0 miWNW (300°)24.2 mph33.4 mphLight Drizzle
4:15 PM1.4 °F-9.4 °F61 %30.09 in5.0 miNW (310°)21.9 mphSnowLight Snow
4:35 PM-0.4 °F-9.4 °F66 %30.10 in7.0 miNW (310°)25.3 mph31.1 mphMostly Cloudy
4:55 PM-0.4 °F-11.2 °F60 %30.12 in9.0 miWNW (300°)23.0 mph33.4 mphMostly Cloudy
5:15 PM-0.4 °F-11.2 °F60 %30.13 in8.0 miNW (310°)23.0 mph31.1 mphMostly Cloudy
5:35 PM-0.4 °F-11.2 °F60 %30.13 in9.0 miNW (310°)25.3 mph33.4 mphMostly Cloudy
5:55 PM-2.2 °F-11.2 °F66 %30.14 in8.0 miWNW (300°)23.0 mphMostly Cloudy
6:15 PM-2.2 °F-11.2 °F66 %30.15 in10.0 miNW (310°)19.6 mph26.5 mphOvercast
6:35 PM-2.2 °F-11.2 °F66 %30.16 in10.0 miWNW (300°)19.6 mph28.8 mphMostly Cloudy
6:55 PM-2.2 °F-11.2 °F66 %30.17 in10.0 miNW (310°)17.3 mph25.3 mphMostly Cloudy
7:15 PM-2.2 °F-11.2 °F66 %30.18 in10.0 miNW (310°)19.6 mph25.3 mphMostly Cloudy
7:35 PM-2.2 °F-11.2 °F66 %30.18 in10.0 miWNW (300°)17.3 mph26.5 mphMostly Cloudy
8:15 PM-4.0 °F-13.0 °F65 %30.19 in10.0 miWNW (300°)19.6 mphScattered Clouds
8:35 PM-4.0 °F-13.0 °F65 %30.21 in10.0 miNW (310°)19.6 mphScattered Clouds
8:55 PM-4.0 °F-13.0 °F65 %30.21 in10.0 miNW (310°)17.3 mphScattered Clouds
9:15 PM-4.0 °F-13.0 °F65 %30.22 in10.0 miNW (310°)19.6 mphScattered Clouds
9:35 PM-4.0 °F-13.0 °F65 %30.22 in10.0 miWNW (300°)18.4 mph28.8 mphScattered Clouds
9:55 PM-4.0 °F-13.0 °F65 %30.23 in10.0 miWNW (300°)16.1 mph26.5 mphPartly Cloudy
10:15 PM-4.0 °F-14.8 °F60 %30.23 in10.0 miNW (310°)17.3 mph24.2 mphPartly Cloudy
10:35 PM-5.8 °F-14.8 °F65 %30.24 in10.0 miWNW (300°)17.3 mphScattered Clouds
10:55 PM-5.8 °F-14.8 °F65 %30.25 in10.0 miWNW (300°)19.6 mph27.6 mphScattered Clouds
11:15 PM-5.8 °F-14.8 °F65 %30.25 in10.0 miWNW (300°)23.0 mphScattered Clouds
11:35 PM-5.8 °F-14.8 °F65 %30.26 in10.0 miNW (310°)17.3 mph24.2 mphScattered Clouds
Hourly data recorded from KCCY, located miles away from New Hampton, Iowa







STORIES FROM OUR PARTNERS